EW5808 Weather Reports


time (UTC)temp
C
wind
direction
speed
KPH
gust
KPH
rain 1hr
cm
rain 24hr
cm
rain mn
cm
humidity
%
barometer
mb
20190421002325 12 11 0.0 4.8 0.00 0.00 0.00 74 1010.6
20190421001823 12 11 1.6 8.0 0.00 0.00 0.00 74 1010.6
20190421001321 12 48 3.2 9.7 0.00 0.00 0.00 74 1010.6
20190421000819 12 40 4.8 9.7 0.00 0.00 0.00 75 1010.7
20190421000317 12 42 4.8 9.7 0.00 0.00 0.00 75 1010.8
20190420235816 12 38 3.2 12.9 0.00 0.00 0.00 75 1010.8
20190420235314 12 28 4.8 12.9 0.00 0.00 0.00 75 1010.9
20190420234816 12 50 4.8 14.5 0.00 0.00 0.00 75 1011.0
20190420234314 12 51 3.2 14.5 0.00 0.00 0.00 75 1011.0
20190420233813 12 355 6.4 17.7 0.00 0.00 0.00 75 1011.0
20190420233311 12 26 6.4 17.7 0.00 0.00 0.00 75 1011.2
20190420232829 12 28 3.2 9.7 0.00 0.00 0.00 75 1011.2
20190420232327 12 71 4.8 8.0 0.00 0.00 0.00 76 1011.2
20190420231825 12 30 3.2 6.4 0.00 0.00 0.00 77 1011.3
20190420231323 12 31 3.2 6.4 0.00 0.00 0.00 77 1011.2
20190420230821 12 51 1.6 4.8 0.00 0.00 0.00 78 1011.3
20190420230319 12 49 0.0 1.6 0.00 0.00 0.00 78 1011.4
20190420225815 12 49 0.0 1.6 0.00 0.00 0.00 78 1011.4
20190420225313 13 49 0.0 4.8 0.00 0.00 0.00 78 1011.4
20190420224811 13 47 1.6 4.8 0.00 0.00 0.00 77 1011.3
20190420224329 13 48 1.6 1.6 0.00 0.00 0.00 77 1011.4
20190420223811 13 50 0.0 1.6 0.00 0.00 0.00 77 1011.4
20190420223329 13 46 0.0 3.2 0.00 0.00 0.00 77 1011.4
20190420222827 13 44 1.6 3.2 0.00 0.00 0.00 77 1011.4
20190420222325 13 44 0.0 3.2 0.00 0.00 0.00 76 1011.6
20190420221822 13 44 0.0 4.8 0.00 0.00 0.00 76 1011.6
20190420221319 13 44 3.2 8.0 0.00 0.00 0.00 76 1011.7
20190420220817 13 44 3.2 8.0 0.00 0.00 0.00 76 1011.7
20190420220315 13 13 3.2 8.0 0.00 0.00 0.00 75 1011.7
20190420215815 13 5 4.8 14.5 0.00 0.00 0.00 75 1011.7
20190420215312 13 38 8.0 16.1 0.00 0.00 0.00 75 1011.8
20190420214830 13 53 8.0 16.1 0.00 0.00 0.00 76 1011.9
20190420214328 13 53 4.8 11.3 0.00 0.00 0.00 77 1011.8
20190420213826 13 42 3.2 8.0 0.00 0.00 0.00 78 1011.8
20190420213324 13 5 3.2 8.0 0.00 0.00 0.00 78 1011.8
20190420212822 13 32 3.2 8.0 0.00 0.00 0.00 78 1011.7
20190420212323 13 74 1.6 8.0 0.00 0.00 0.00 77 1011.7
20190420211820 13 360 1.6 4.8 0.00 0.00 0.00 78 1011.7
20190420211318 13 294 3.2 4.8 0.00 0.00 0.00 78 1011.6
20190420210816 13 360 1.6 4.8 0.00 0.00 0.00 78 1011.6
20190420210314 13 261 1.6 4.8 0.00 0.00 0.00 78 1011.6
20190420205812 13 360 1.6 6.4 0.00 0.00 0.00 77 1011.6
20190420205330 13 360 3.2 6.4 0.00 0.00 0.00 77 1011.5
20190420204827 13 360 4.8 6.4 0.00 0.00 0.00 76 1011.4
20190420204324 13 360 3.2 8.0 0.00 0.00 0.00 76 1011.4
20190420203822 13 360 3.2 8.0 0.00 0.00 0.00 75 1011.3
20190420203320 14 323 3.2 4.8 0.00 0.00 0.00 75 1011.2
20190420202818 14 360 1.6 4.8 0.00 0.00 0.00 75 1011.2
20190420202315 14 34 1.6 4.8 0.00 0.00 0.00 75 1011.1
20190420201812 14 33 1.6 8.0 0.00 0.00 0.00 74 1011.1
20190420201314 14 28 4.8 17.7 0.00 0.00 0.00 73 1011.0
20190420200811 14 52 6.4 19.3 0.00 0.00 0.00 73 1010.9
20190420200329 14 41 9.7 19.3 0.00 0.00 0.00 72 1010.8
20190420195827 14 103 8.0 20.9 0.00 0.00 0.00 72 1010.8
20190420195325 14 56 11.3 20.9 0.00 0.00 0.00 71 1010.8
20190420194823 15 32 8.0 22.5 0.00 0.00 0.00 70 1010.7
20190420194321 15 36 11.3 22.5 0.00 0.00 0.00 70 1010.7
20190420193818 15 88 11.3 19.3 0.00 0.00 0.00 70 1010.8
20190420193316 15 38 8.0 24.1 0.00 0.00 0.00 70 1010.8
20190420192814 15 39 12.9 25.7 0.00 0.00 0.00 69 1010.7
20190420192312 15 27 9.7 25.7 0.00 0.00 0.00 69 1010.7
20190420191830 15 49 8.0 20.9 0.00 0.00 0.00 69 1010.6
20190420191328 15 39 8.0 17.7 0.00 0.00 0.00 69 1010.5
20190420190826 15 54 9.7 20.9 0.00 0.00 0.00 69 1010.3
20190420190324 15 41 11.3 22.5 0.00 0.00 0.00 69 1010.2
20190420185825 15 42 8.0 22.5 0.00 0.00 0.00 69 1010.1
20190420185323 15 21 12.9 25.7 0.00 0.00 0.00 69 1010.0
20190420184820 15 51 11.3 25.7 0.00 0.00 0.00 68 1010.0
20190420184318 15 44 9.7 25.7 0.00 0.00 0.00 68 1010.0
20190420183817 15 56 11.3 24.1 0.00 0.00 0.00 68 1010.0
20190420183315 15 71 12.9 24.1 0.00 0.00 0.00 68 1009.9
20190420182813 15 71 8.0 25.7 0.00 0.00 0.00 69 1009.8
20190420182311 15 351 9.7 25.7 0.00 0.00 0.00 68 1009.7
20190420181829 15 32 8.0 25.7 0.00 0.00 0.00 68 1009.6
20190420181327 15 360 12.9 30.6 0.00 0.00 0.00 68 1009.5
20190420180825 15 19 12.9 24.1 0.00 0.00 0.00 67 1009.5
20190420180322 15 86 11.3 30.6 0.00 0.00 0.00 68 1009.3
20190420175819 15 70 14.5 30.6 0.00 0.00 0.00 68 1009.3
20190420175317 15 82 11.3 25.7 0.00 0.00 0.00 68 1009.4
20190420174818 15 32 11.3 29.0 0.00 0.00 0.00 67 1009.5
20190420174316 15 36 12.9 29.0 0.00 0.00 0.00 67 1009.5
20190420173816 15 61 12.9 27.4 0.00 0.00 0.00 67 1009.4
20190420173333 16 317 11.3 24.1 0.00 0.00 0.00 67 1009.4
20190420145819 17 360 17.7 27.4 0.00 0.10 0.00 63 1009.0
20190420145333 17 360 16.1 27.4 0.00 0.10 0.00 61 1009.0
20190420144826 17 360 9.7 24.1 0.00 0.10 0.00 61 1009.0
20190420144320 17 360 17.7 24.1 0.00 0.10 0.00 59 1009.0
20190420143828 17 360 9.7 27.4 0.00 0.10 0.00 59 1009.0
20190420143322 17 360 16.1 27.4 0.00 0.10 0.00 59 1009.0
20190420142814 17 360 12.9 24.1 0.00 0.10 0.00 59 1009.1
20190420142328 17 360 11.3 25.7 0.00 0.10 0.00 60 1009.1
20190420141823 17 360 11.3 25.7 0.00 0.10 0.00 60 1009.1
20190420141315 17 360 11.3 29.0 0.00 0.10 0.00 60 1009.1
20190420140829 17 360 9.7 29.0 0.00 0.10 0.00 61 1009.1
20190420140324 17 360 12.9 27.4 0.00 0.10 0.00 60 1009.1
20190420135817 17 360 11.3 27.4 0.00 0.51 0.00 60 1009.1
20190420135331 17 360 9.7 22.5 0.00 0.51 0.00 60 1009.1
20190420134825 17 360 11.3 22.5 0.00 0.51 0.00 59 1009.2
20190420134321 17 360 11.3 29.0 0.00 0.51 0.00 59 1009.1
20190420133815 17 360 11.3 29.0 0.00 0.51 0.00 58 1009.1
20190420133328 18 360 14.5 25.7 0.00 0.51 0.00 57 1009.1
20190420132822 18 15 11.3 24.1 0.00 0.51 0.00 57 1009.1
20190420132316 18 74 9.7 24.1 0.00 0.51 0.00 55 1009.1
20190420131829 18 80 11.3 24.1 0.00 0.51 0.00 55 1009.3
20190420130823 18 67 9.7 20.9 0.00 0.51 0.00 57 1009.2
20190420130317 18 5 9.7 22.5 0.00 0.51 0.00 57 1009.2
20190420125827 18 67 11.3 22.5 0.00 0.89 0.00 57 1009.2
20190420125320 17 56 6.4 19.3 0.00 0.89 0.00 58 1009.1
20190420124834 17 13 6.4 17.7 0.00 0.89 0.00 61 1009.3
20190420124326 17 346 8.0 20.9 0.00 0.89 0.00 62 1009.3
20190420123821 17 62 8.0 20.9 0.00 0.89 0.00 64 1009.5
20190420123315 16 29 8.0 19.3 0.00 0.89 0.00 64 1009.6
20190420122827 16 32 3.2 17.7 0.00 0.89 0.00 65 1009.5
20190420122321 16 19 9.7 20.9 0.00 0.89 0.00 64 1009.7
20190420121815 16 63 3.2 16.1 0.00 0.89 0.00 66 1009.5
20190420121329 16 38 6.4 17.7 0.00 0.89 0.00 65 1009.7
20190420120822 16 33 6.4 22.5 0.00 0.89 0.00 65 1009.7
20190420120316 16 37 8.0 17.7 0.00 0.89 0.00 66 1009.8
20190420115814 16 64 8.0 17.7 0.00 0.99 0.00 66 1009.9
20190420115327 16 31 9.7 19.3 0.00 0.99 0.00 66 1009.8
20190420114822 16 49 9.7 20.9 0.00 0.99 0.00 66 1009.9
20190420114315 16 12 8.0 20.9 0.00 0.99 0.00 66 1009.9
20190420113829 16 33 9.7 19.3 0.00 0.99 0.00 65 1009.9
20190420113323 16 24 9.7 19.3 0.00 0.99 0.00 65 1010.0
20190420112817 16 360 4.8 17.7 0.00 0.99 0.00 64 1010.0
20190420112331 16 360 3.2 17.7 0.00 0.99 0.00 64 1010.0
20190420111825 16 360 6.4 14.5 0.00 0.99 0.00 64 1009.9
20190420111319 16 360 6.4 16.1 0.00 0.99 0.00 65 1010.0
20190420110833 15 55 6.4 12.9 0.00 0.99 0.00 66 1010.1
20190420110326 15 42 3.2 16.1 0.00 0.99 0.00 66 1010.1
20190420105822 15 44 6.4 16.1 0.00 0.99 0.00 66 1010.2
20190420105314 15 30 6.4 16.1 0.00 0.99 0.00 66 1010.2
20190420104829 15 21 6.4 16.1 0.00 0.99 0.00 67 1010.2
20190420104322 15 38 6.4 19.3 0.00 0.99 0.00 67 1010.3
20190420103815 15 87 9.7 19.3 0.00 0.99 0.00 65 1010.3
20190420103330 15 59 6.4 16.1 0.00 0.99 0.00 66 1010.2
20190420102823 14 84 4.8 24.1 0.00 0.99 0.00 65 1010.4
20190420102322 14 49 9.7 24.1 0.00 0.99 0.00 64 1010.4
20190420101815 14 87 9.7 17.7 0.00 0.99 0.00 63 1010.4
20190420101328 14 341 8.0 17.7 0.00 0.99 0.00 65 1010.3
20190420100823 14 48 8.0 14.5 0.00 0.99 0.00 66 1010.4
20190420100316 14 50 6.4 14.5 0.00 0.99 0.00 67 1010.4
20190420095829 14 65 4.8 16.1 0.00 0.99 0.00 68 1010.3
20190420095323 13 51 4.8 24.1 0.00 0.99 0.00 67 1010.4
20190420094818 13 53 11.3 24.1 0.00 0.99 0.00 67 1010.5
20190420094331 13 42 8.0 16.1 0.00 0.99 0.00 68 1010.5
20190420093824 13 48 6.4 14.5 0.00 0.99 0.00 69 1010.4
20190420093318 13 63 6.4 14.5 0.00 0.99 0.00 70 1010.3
20190420092831 13 108 3.2 14.5 0.00 0.99 0.00 71 1010.4
20190420092325 13 67 8.0 19.3 0.00 0.99 0.00 71 1010.4
20190420091333 12 44 6.4 17.7 0.00 0.99 0.00 72 1010.4
20190420090826 12 38 8.0 17.7 0.00 0.99 0.00 73 1010.4
20190420090320 12 76 6.4 17.7 0.00 0.99 0.00 74 1010.3
20190420085814 12 71 4.8 14.5 0.00 0.99 0.00 75 1010.2
20190420085328 12 57 6.4 16.1 0.00 0.99 0.00 76 1010.2
20190420084826 12 50 6.4 16.1 0.00 0.99 0.00 76 1010.2
20190420084320 12 342 4.8 19.3 0.00 0.99 0.00 77 1010.1
20190420083814 12 350 6.4 17.7 0.00 0.99 0.00 77 1010.0
20190420083330 12 70 6.4 19.3 0.00 0.99 0.00 77 1010.1
20190420082822 12 360 8.0 19.3 0.00 0.99 0.00 77 1010.1
20190420082315 12 360 6.4 17.7 0.00 0.99 0.00 76 1010.2
20190420081829 12 360 8.0 16.1 0.00 0.99 0.00 76 1010.2
20190420081324 12 22 3.2 14.5 0.00 0.99 0.00 76 1010.2
20190420080817 12 57 6.4 14.5 0.00 0.99 0.00 76 1010.1
20190420080331 12 65 3.2 14.5 0.00 0.99 0.00 76 1010.1
20190420075825 12 220 4.8 12.9 0.00 0.99 0.00 76 1010.1
20190420075319 11 13 4.8 9.7 0.00 0.99 0.00 77 1010.1
20190420074833 11 34 3.2 19.3 0.00 0.99 0.00 77 1010.0
20190420074326 11 355 4.8 20.9 0.00 0.99 0.00 77 1010.0
20190420073820 11 27 8.0 27.4 0.00 0.99 0.00 77 1010.0
20190420073334 11 101 8.0 27.4 0.00 0.99 0.00 77 1009.8
20190420072827 11 9 8.0 22.5 0.00 0.99 0.00 77 1009.8
20190420072321 11 35 9.7 22.5 0.00 0.99 0.00 77 1009.8
20190420071819 11 265 11.3 30.6 0.00 0.99 0.00 77 1010.0
20190420071333 11 24 12.9 37.0 0.00 0.99 0.00 77 1010.0
20190420070826 11 72 14.5 37.0 0.00 0.99 0.00 77 1010.0
20190420070320 11 38 11.3 35.4 0.00 0.99 0.00 77 1010.0
20190420065815 11 38 17.7 35.4 0.00 0.99 0.00 78 1010.1
20190420065328 11 78 11.3 22.5 0.00 0.99 0.00 79 1010.1
20190420064822 11 111 12.9 22.5 0.00 0.99 0.00 79 1010.2
20190420064315 11 45 6.4 22.5 0.00 0.99 0.00 79 1010.2
20190420063829 11 16 8.0 22.5 0.00 0.99 0.00 79 1010.3
20190420063321 11 39 9.7 25.7 0.00 0.99 0.00 78 1010.4
20190420062817 11 74 14.5 25.7 0.00 0.99 0.00 78 1010.3
20190420062330 11 56 11.3 27.4 0.00 0.99 0.00 78 1010.3
20190420061823 11 24 11.3 27.4 0.00 0.99 0.00 78 1010.2
20190420061316 11 54 12.9 29.0 0.00 0.99 0.00 78 1010.3
20190420060830 11 49 14.5 32.2 0.00 0.99 0.00 77 1010.2
20190420060325 11 49 16.1 32.2 0.00 0.99 0.00 78 1010.2
20190420055839 11 44 11.3 27.4 0.00 0.99 0.00 78 1010.3
20190420055315 11 55 14.5 27.4 0.00 0.99 0.00 77 1010.2
20190420054830 11 59 11.3 27.4 0.00 0.99 0.00 77 1010.1
20190420054323 11 22 14.5 29.0 0.00 0.99 0.00 76 1010.1
20190420053820 11 65 14.5 30.6 0.00 0.99 0.00 76 1010.1
20190420053314 11 82 14.5 33.8 0.00 0.99 0.00 76 1010.1
20190420052828 11 40 14.5 33.8 0.00 0.99 0.00 76 1010.1
20190420052322 11 90 14.5 25.7 0.00 0.99 0.00 77 1010.3
20190420051815 11 61 14.5 27.4 0.00 0.99 0.00 77 1010.2
20190420051329 11 63 14.5 24.1 0.00 0.99 0.00 78 1010.1
20190420050824 10 53 11.3 19.3 0.00 0.99 0.00 78 1010.1
20190420050317 10 52 8.0 19.3 0.00 0.99 0.00 79 1010.0
20190420045831 10 52 6.4 11.3 0.00 0.99 0.00 79 1010.2
20190420045325 10 69 6.4 22.5 0.00 0.99 0.00 79 1010.2
20190420044819 10 93 8.0 19.3 0.00 0.99 0.00 78 1010.0
20190420044333 10 88 11.3 22.5 0.00 0.99 0.00 78 1010.0
20190420043826 10 17 12.9 22.5 0.00 0.99 0.00 78 1009.9
20190420043320 10 58 11.3 24.1 0.00 0.99 0.00 78 1010.0
20190420042815 10 64 9.7 24.1 0.00 0.99 0.00 78 1010.0
20190420042328 10 76 9.7 22.5 0.00 0.99 0.00 79 1010.1
20190420041821 10 27 11.3 22.5 0.00 0.99 0.00 79 1010.1
20190420041316 10 46 9.7 19.3 0.00 0.99 0.00 79 1010.2
20190420040829 10 345 6.4 16.1 0.00 0.99 0.00 79 1010.2
20190420040327 10 111 6.4 19.3 0.00 0.99 0.00 80 1010.2
20190420035821 10 42 8.0 19.3 0.00 0.99 0.00 81 1010.3
20190420035315 10 21 4.8 14.5 0.00 0.99 0.00 81 1010.4
20190420034829 10 40 6.4 14.5 0.00 0.99 0.00 82 1010.5
20190420034321 10 26 4.8 12.9 0.00 0.99 0.00 82 1010.7
20190420033816 9 63 4.8 11.3 0.00 0.99 0.00 82 1010.8
20190420033330 9 97 4.8 17.7 0.00 0.99 0.00 82 1010.9
20190420032823 9 44 6.4 19.3 0.00 0.99 0.00 82 1010.9
20190420032317 9 42 8.0 19.3 0.00 0.99 0.00 82 1010.9
20190420031831 9 34 6.4 16.1 0.00 0.99 0.00 82 1011.0
20190420031324 9 42 6.4 16.1 0.00 0.99 0.00 82 1011.0
20190420030819 9 42 4.8 17.7 0.00 0.99 0.00 82 1011.1
20190420030334 9 79 6.4 17.7 0.00 0.99 0.00 82 1011.1
20190420025827 9 58 8.0 16.1 0.00 0.99 0.00 82 1011.3
20190420025321 10 35 4.8 14.5 0.00 0.99 0.00 82 1011.4
20190420024815 10 45 3.2 12.9 0.00 0.99 0.00 82 1011.5
20190420024329 10 72 4.8 9.7 0.00 0.99 0.00 82 1011.6
20190420023821 10 34 3.2 9.7 0.00 0.99 0.00 82 1011.8
20190420023319 10 337 0.0 4.8 0.00 0.99 0.00 82 1011.8
20190420022834 10 355 1.6 4.8 0.00 0.99 0.00 83 1011.8
20190420022327 10 123 1.6 4.8 0.00 0.99 0.00 83 1011.7
20190420021821 10 129 0.0 4.8 0.00 0.99 0.00 83 1011.7
20190420021334 9 129 1.6 4.8 0.00 0.99 0.00 83 1011.8
20190420020827 9 168 1.6 3.2 0.00 0.99 0.00 83 1011.8
20190420020321 9 168 0.0 4.8 0.00 0.99 0.00 83 1011.9
20190420015815 9 168 0.0 4.8 0.00 0.99 0.00 83 1011.9
20190420015330 10 152 3.2 4.8 0.00 0.99 0.00 83 1012.0
20190420014824 10 140 0.0 4.8 0.00 0.99 0.00 83 1012.2
20190420014317 10 130 0.0 6.4 0.00 0.99 0.00 83 1012.4
20190420013831 10 130 1.6 6.4 0.00 0.99 0.00 83 1012.5
20190420013324 10 28 3.2 4.8 0.00 0.99 0.00 82 1012.6
20190420012818 10 23 3.2 4.8 0.00 0.99 0.00 83 1012.7
20190420012332 10 21 1.6 4.8 0.00 0.99 0.00 83 1012.8
20190420011825 10 21 0.0 4.8 0.00 0.99 0.00 83 1012.9
20190420011319 10 19 1.6 4.8 0.00 0.99 0.00 83 1012.9
20190420010833 10 19 1.6 4.8 0.00 0.99 0.00 83 1012.9
20190420010327 10 15 1.6 3.2 0.00 0.99 0.00 83 1013.0
20190420005825 10 15 1.6 3.2 0.00 0.99 0.00 83 1013.0
20190420005318 10 15 0.0 9.7 0.00 0.99 0.00 83 1013.1
20190420004833 10 15 1.6 9.7 0.00 0.99 0.00 83 1013.2
20190420004326 10 49 0.0 4.8 0.00 0.99 0.00 83 1013.1
20190420003819 10 49 0.0 4.8 0.00 0.99 0.00 83 1013.2
20190420003332 10 49 1.6 4.8 0.00 0.99 0.00 83 1013.2
20190420002826 10 50 0.0 4.8 0.00 0.99 0.00 83 1013.2